Regional Weather Roundup
Issued by NWS Albany, NY

Home | Current Version | Previous Version | Text Only | Print | Product List | Glossary On
Versions: 1 2 3 4 5 6 7 8 9 10 11 12 13 14 15 16 17 18 19 20 21 22 23 24 25 26 27
000
ASUS41 KALY 200010
RWRALY

NEW YORK STATE HOURLY WEATHER ROUNDUP
NATIONAL WEATHER SERVICE ALBANY NY
800 PM EDT SAT APR 19 2014

NOTE: "FAIR" INDICATES FEW OR NO CLOUDS BELOW 12,000 FEET WITH NO
SIGNIFICANT WEATHER AND/OR NO OBSTRUCTIONS TO VISIBILITY.

NYZ032-033-038>043-046>054-057>066-NYZ062>081-200100-
EAST


CITY           SKY/WX    TMP DP  RH WIND       PRES   REMARKS
ALBANY         MOCLDY    51  24  34 NE9       30.35R
GLENS FALLS    CLEAR     50  23  34 N7        30.37R
POUGHKEEPSIE   PTCLDY    54  22  28 E6        30.30R
NEWBURGH       CLEAR     54  25  32 NE16      30.30R
MONTGOMERY     PTCLDY    51  27  39 NE10      30.29R
WHITE PLAINS   MOCLDY    57  20  23 N8        30.27R
ISLIP          MOCLDY    58  27  30 N5        30.25R
NEW YORK CITY  MOCLDY    59  25  27 E7        30.26R
CENTRAL PARK   MOCLDY    62  20  19 NE3       30.29R
$$

NYZ005>009-017-018-044>046-055-056-200100-
CENTRAL


CITY           SKY/WX    TMP DP  RH WIND       PRES   REMARKS
FULTON         CLEAR     44  27  51 N7        30.41S
SYRACUSE       PTCLDY    46  29  51 N8        30.40S
ROME           CLEAR     47  23  38 N7        30.40R
ELMIRA         MOCLDY    46  26  45 N8        30.37R
BINGHAMTON     MOCLDY    46  26  45 N12       30.33S
MONTICELLO     PTCLDY    46  21  36 N8        30.32S
$$

NYZ026>034-041>043-200100-
NORTH


CITY           SKY/WX    TMP DP  RH WIND       PRES   REMARKS
WATERTOWN      CLEAR     39  30  70 W7        30.44R WCI  34
FORT DRUM      NOT AVBL
MASSENA        CLEAR     46  19  34 N3        30.41S
SARANAC LAKE   CLEAR     37  20  50 NW3       30.35R
PLATTSBURGH    CLEAR     44  22  41 W5        30.38R
$$

NYZ001>004-010>016-019>021-200100-
WEST


CITY           SKY/WX    TMP DP  RH WIND       PRES   REMARKS
NIAGARA FALLS  PTCLDY    46  26  45 NE10      30.38F
BUFFALO        PTCLDY    48  27  44 NE8       30.37F
DUNKIRK        CLEAR     44  27  51 NE12      30.36F
JAMESTOWN      CLEAR     48  28  46 N8        30.32S
WELLSVILLE     PTCLDY    45  23  42 NE8       30.34S
ROCHESTER      PTCLDY    45  27  49 NE9       30.41S
PENN YAN       PTCLDY    45  27  49 VRB5      30.39R
$$

             KEY
       WCI = WIND CHILL INDEX
       VSB = VISIBILITY
       HX  = HEAT INDEX
$$



USA.gov is the U.S. government's official web portal to all federal, state and local government web resources and services.